DW2217 Weather Reports


time (UTC)temp
C
wind
direction
speed
KPH
gust
KPH
rain 1hr
cm
rain 24hr
cm
rain mn
cm
humidity
%
barometer
mb
20260903224308 17 65 0.0 0.0 0.00 0.58 0.58 98 1012.3
20260903223804 17 65 0.0 0.0 0.00 0.58 0.58 98 1012.3
20260903223302 17 65 0.0 0.0 0.00 0.58 0.58 98 1012.3
20260903222757 17 65 0.0 0.0 0.00 0.58 0.58 98 1012.3
20260903222256 17 65 0.0 0.0 0.00 0.58 0.58 98 1012.5
20260903221751 17 65 0.0 0.0 0.00 0.58 0.58 98 1012.3
20260903221249 17 65 0.0 0.0 0.00 0.58 0.58 98 1012.1
20260903220748 17 65 0.0 0.0 0.00 0.58 0.58 98 1012.3
20260903220243 17 65 0.0 0.0 0.00 0.58 0.58 98 1012.4
20260903215736 17 65 0.0 0.0 0.00 0.58 0.58 98 1012.2
20260903215232 17 65 0.0 0.0 0.00 0.58 0.58 98 1012.3
20260903214730 17 65 0.0 0.0 0.00 0.58 0.58 98 1012.4
20260903214226 17 65 0.0 0.0 0.00 0.58 0.58 98 1012.2
20260903213720 17 65 0.0 0.0 0.00 0.58 0.58 98 1012.2
20260903213216 17 65 0.0 0.0 0.00 0.58 0.58 98 1012.6
20260903212712 17 65 0.0 0.0 0.00 0.58 0.58 98 1012.4
20260903212208 17 65 0.0 0.0 0.00 0.58 0.58 98 1012.2
20260903211701 17 66 0.0 0.0 0.00 0.58 0.58 98 1012.3
20260903211158 17 65 0.0 0.0 0.00 0.58 0.58 98 1012.3
20260903210654 17 66 0.0 0.0 0.00 0.58 0.58 98 1012.2
20260903210150 17 65 0.0 0.0 0.00 0.58 0.58 98 1012.1
20260903205649 17 66 0.0 0.0 0.00 0.58 0.58 98 1012.3
20260903205148 17 65 0.0 0.0 0.00 0.58 0.58 98 1012.3
20260903204644 17 66 0.0 0.0 0.00 0.58 0.58 98 1012.1
20260903204140 17 66 0.0 0.0 0.00 0.58 0.58 98 1012.4
20260903203635 17 66 0.0 0.0 0.00 0.58 0.58 98 1012.4
20260903203130 17 66 0.0 0.0 0.00 0.58 0.58 98 1012.4
20260903202625 17 66 0.0 0.0 0.00 0.58 0.58 98 1012.4
20260903202120 17 66 0.0 0.0 0.00 0.58 0.58 98 1012.3
20260903201614 17 66 0.0 0.0 0.00 0.58 0.58 98 1012.4
20260903201114 17 66 0.0 0.0 0.00 0.58 0.58 98 1012.4
20260903200609 17 66 0.0 0.0 0.00 0.58 0.58 98 1012.5
20260903200104 17 66 0.0 0.0 0.00 0.58 0.58 98 1012.5
20260903195600 17 66 1.6 3.2 0.00 0.58 0.58 98 1012.7
20260903195055 17 65 1.6 3.2 0.00 0.58 0.58 98 1012.7
20260903194545 17 65 0.0 3.2 0.00 0.58 0.58 98 1012.7
20260903194040 17 65 0.0 0.0 0.00 0.58 0.58 98 1012.7
20260903193536 17 65 0.0 0.0 0.00 0.58 0.58 98 1012.8
20260903193031 17 65 0.0 3.2 0.00 0.58 0.58 98 1013.0
20260903192529 17 65 0.0 3.2 0.00 0.58 0.58 98 1012.9
20260903192028 17 65 0.0 0.0 0.00 0.58 0.58 98 1013.1
20260903191525 17 65 0.0 0.0 0.00 0.58 0.58 98 1013.0
20260903191025 17 65 0.0 0.0 0.00 0.58 0.58 98 1013.1
20260903190519 16 65 0.0 0.0 0.00 0.58 0.58 98 1013.1
20260903190018 16 65 0.0 0.0 0.00 0.58 0.58 98 1013.2
20260903185514 16 65 0.0 0.0 0.00 0.58 0.58 98 1013.2
20260903185009 16 65 0.0 0.0 0.00 0.58 0.58 98 1013.4
20260903184506 16 65 0.0 0.0 0.00 0.58 0.58 98 1013.3
20260903184006 16 65 0.0 0.0 0.00 0.58 0.58 98 1013.3
20260903183459 16 65 0.0 0.0 0.00 0.58 0.58 98 1013.4
20260903183000 16 65 0.0 0.0 0.00 0.58 0.58 98 1013.7
20260903182458 16 65 0.0 0.0 0.00 0.58 0.58 98 1013.6
20260903181955 16 65 0.0 0.0 0.00 0.58 0.58 98 1013.8
20260903181453 16 65 0.0 0.0 0.00 0.58 0.58 98 1013.6
20260903180947 16 65 0.0 0.0 0.00 0.58 0.58 98 1013.8
20260903180443 16 65 0.0 0.0 0.00 0.58 0.58 98 1013.7
20260903175942 16 65 0.0 0.0 0.00 0.58 0.58 98 1013.7
20260903175437 16 108 0.0 0.0 0.00 0.58 0.58 98 1013.4
20260903174936 16 108 0.0 0.0 0.00 0.58 0.58 98 1013.5
20260903174431 16 108 0.0 0.0 0.00 0.58 0.58 98 1013.7
20260903173931 16 108 0.0 3.2 0.00 0.58 0.58 98 1013.7
20260903173426 16 108 0.0 3.2 0.00 0.58 0.58 98 1013.6
20260903172921 16 108 0.0 3.2 0.00 0.58 0.58 98 1013.4
20260903172416 16 109 0.0 0.0 0.00 0.58 0.58 98 1013.5
20260903171912 16 109 1.6 3.2 0.00 0.58 0.58 98 1013.6
20260903171407 16 109 0.0 0.0 0.00 0.58 0.58 98 1013.7
20260903170907 16 109 0.0 0.0 0.00 0.58 0.58 98 1013.6
20260903170402 16 84 0.0 3.2 0.00 0.58 0.58 98 1013.6
20260903165901 16 85 0.0 3.2 0.00 0.58 0.58 98 1013.6
20260903165355 16 86 3.2 3.2 0.00 0.58 0.58 98 1013.6
20260903164849 16 85 1.6 3.2 0.00 0.58 0.58 98 1013.7
20260903164345 16 117 0.0 0.0 0.00 0.58 0.58 98 1013.9
20260903163844 16 117 0.0 0.0 0.00 0.58 0.58 98 1013.8
20260903163341 16 117 0.0 3.2 0.00 0.58 0.58 98 1013.9
20260903162836 16 117 0.0 3.2 0.00 0.58 0.58 98 1013.9
20260903162333 16 110 0.0 3.2 0.00 0.58 0.58 98 1013.9
20260903161828 16 110 0.0 3.2 0.00 0.58 0.58 98 1014.1
20260903161324 16 110 0.0 0.0 0.00 0.58 0.58 98 1014.1
20260903160819 16 110 0.0 3.2 0.00 0.58 0.58 98 1014.3
20260903160318 16 110 0.0 0.0 0.00 0.58 0.58 98 1014.3
20260903155817 16 110 0.0 3.2 0.00 0.58 0.58 98 1014.4
20260903155312 16 110 0.0 3.2 0.00 0.58 0.58 98 1014.5
20260903154808 16 109 0.0 0.0 0.00 0.58 0.58 98 1014.6
20260903154304 16 109 0.0 0.0 0.00 0.58 0.58 98 1014.7
20260903153759 16 109 0.0 3.2 0.00 0.58 0.58 98 1014.7
20260903153255 16 109 0.0 0.0 0.00 0.58 0.58 98 1014.9
20260903152751 16 109 0.0 0.0 0.00 0.58 0.58 98 1014.7
20260903152246 16 109 1.6 3.2 0.00 0.58 0.58 98 1015.1
20260903151740 16 109 3.2 3.2 0.00 0.58 0.58 98 1015.0
20260903151236 16 109 1.6 3.2 0.00 0.58 0.58 98 1015.0
20260903150731 16 109 0.0 0.0 0.00 0.58 0.58 98 1015.1
20260903150225 16 109 0.0 3.2 0.00 0.58 0.58 98 1015.1
20260903145725 16 109 0.0 0.0 0.00 0.58 0.58 98 1015.0
20260903145221 16 109 1.6 3.2 0.00 0.58 0.58 98 1014.8
20260903144719 16 109 0.0 3.2 0.00 0.58 0.58 98 1015.1
20260903144216 15 109 0.0 0.0 0.00 0.58 0.58 98 1015.0
20260903143711 15 109 0.0 0.0 0.00 0.58 0.58 98 1015.1
20260903143207 15 109 0.0 3.2 0.00 0.58 0.58 98 1015.0
20260903142702 15 109 0.0 0.0 0.00 0.58 0.58 98 1015.1
20260903142159 15 109 0.0 0.0 0.00 0.58 0.58 98 1015.4
20260903141654 15 109 0.0 3.2 0.00 0.58 0.58 98 1015.1
20260903141148 15 109 0.0 0.0 0.13 0.58 0.58 98 1015.2
20260903140645 15 109 0.0 3.2 0.13 0.58 0.58 98 1015.1
20260903140140 15 109 0.0 0.0 0.00 0.56 0.56 98 1015.3
20260903135636 15 109 1.6 3.2 0.00 0.56 0.56 98 1015.2
20260903135130 15 109 0.0 0.0 0.00 0.56 0.56 98 1015.3
20260903134629 15 109 0.0 0.0 0.00 0.56 0.56 98 1015.4
20260903134125 15 109 0.0 0.0 0.00 0.56 0.56 98 1015.6
20260903133623 15 109 0.0 0.0 0.00 0.56 0.56 98 1015.5
20260903133119 15 109 0.0 0.0 0.00 0.56 0.56 98 1015.3
20260903132614 15 109 0.0 0.0 0.18 0.56 0.56 98 1015.6
20260903132113 15 110 0.0 0.0 0.00 0.53 0.53 98 1015.4
20260903131608 15 110 0.0 0.0 0.00 0.53 0.53 98 1015.4
20260903131107 15 110 0.0 0.0 0.00 0.53 0.53 98 1015.5
20260903130603 15 110 0.0 0.0 0.00 0.53 0.53 98 1015.6
20260903130057 15 110 0.0 0.0 0.00 0.53 0.53 98 1015.7
20260903125555 15 110 0.0 0.0 0.00 0.53 0.53 98 1015.6
20260903125050 15 110 0.0 0.0 0.00 0.53 0.53 98 1015.8
20260903124545 15 105 0.0 0.0 0.00 0.53 0.53 98 1015.8
20260903124044 15 102 0.0 0.0 0.00 0.53 0.53 98 1016.0
20260903123544 15 101 0.0 0.0 0.00 0.53 0.53 98 1015.8
20260903123043 15 101 0.0 0.0 0.00 0.53 0.53 98 1015.8
20260903122542 15 101 0.0 0.0 0.00 0.53 0.53 98 1015.9
20260903122042 15 101 0.0 0.0 0.00 0.53 0.53 98 1015.9
20260903121537 15 101 0.0 0.0 0.00 0.53 0.53 98 1016.0
20260903121033 15 101 0.0 0.0 0.00 0.53 0.53 98 1015.9
20260903120531 14 101 0.0 0.0 0.00 0.53 0.53 98 1016.2
20260903120026 14 101 0.0 0.0 0.00 0.53 0.53 98 1016.3
20260903115525 14 101 0.0 0.0 0.00 0.53 0.53 98 1016.3
20260903115020 14 101 0.0 0.0 0.00 0.53 0.53 98 1016.3
20260903114515 14 101 0.0 0.0 0.13 0.53 0.53 98 1016.3
20260903114011 14 102 0.0 3.2 0.13 0.53 0.53 98 1016.4
20260903113506 14 101 0.0 0.0 0.00 0.51 0.51 98 1016.3
20260903113002 14 102 0.0 0.0 0.00 0.51 0.51 98 1016.3
20260903112458 14 102 0.0 0.0 0.00 0.51 0.51 98 1016.2
20260903111957 14 102 0.0 0.0 0.18 0.51 0.51 98 1016.2
20260903111451 14 102 0.0 3.2 0.18 0.51 0.51 98 1016.3
20260903110947 14 120 0.0 0.0 0.00 0.48 0.48 98 1016.4
20260903110443 14 112 0.0 3.2 0.00 0.48 0.48 98 1016.4
20260903105937 14 149 1.6 4.8 0.00 0.48 0.48 98 1016.1
20260903105432 14 100 0.0 3.2 0.00 0.48 0.48 98 1016.1
20260903104932 14 95 0.0 3.2 0.00 0.48 0.48 98 1016.1
20260903104426 14 117 0.0 3.2 0.00 0.48 0.48 98 1015.8
20260903103923 15 90 1.6 3.2 0.00 0.48 0.48 98 1015.9
20260903103419 15 101 1.6 3.2 0.00 0.48 0.48 98 1015.9
20260903102914 15 89 1.6 3.2 0.00 0.48 0.48 98 1015.9
20260903102409 15 99 0.0 3.2 0.00 0.48 0.48 98 1016.0
20260903101908 15 98 0.0 0.0 0.00 0.48 0.48 98 1016.1
20260903101403 15 98 0.0 0.0 0.00 0.48 0.48 98 1016.1
20260903100859 15 99 0.0 0.0 0.00 0.48 0.48 98 1016.1
20260903100353 15 99 0.0 0.0 0.00 0.48 0.48 98 1016.2
20260903095850 15 99 0.0 0.0 0.00 0.48 0.48 98 1016.3
20260903095344 15 100 0.0 3.2 0.00 0.48 0.48 98 1016.3
20260903094840 15 99 0.0 3.2 0.00 0.48 0.48 98 1016.2
20260903094339 15 98 0.0 3.2 0.00 0.48 0.48 98 1016.4
20260903093836 15 98 0.0 0.0 0.00 0.48 0.48 98 1016.1
20260903093331 15 98 0.0 0.0 0.00 0.48 0.48 98 1016.2
20260903092826 15 98 3.2 3.2 0.00 0.48 0.48 98 1016.2
20260903092320 15 98 0.0 3.2 0.00 0.48 0.48 98 1016.2
20260903091819 15 98 0.0 0.0 0.00 0.48 0.48 98 1016.6
20260903091313 15 97 0.0 0.0 0.30 0.48 0.48 98 1016.6
20260903090809 15 96 0.0 4.8 0.71 0.48 0.48 98 1016.7
20260903090309 15 121 1.6 3.2 1.07 0.43 0.43 98 1016.9
20260903085807 15 115 0.0 0.0 0.61 0.33 0.33 98 1016.6
20260903085305 15 123 0.0 3.2 0.61 0.25 0.25 98 1017.1
20260903084800 15 143 1.6 3.2 0.61 0.20 0.20 98 1017.3
20260903084254 15 131 1.6 3.2 0.43 0.15 0.15 98 1017.2
20260903083750 16 128 0.0 3.2 0.13 0.10 0.10 98 1016.9
20260903083244 15 128 1.6 3.2 0.00 0.08 0.08 98 1017.0
20260903082744 15 121 0.0 0.0 0.00 0.08 0.08 98 1017.1
20260903082240 16 121 0.0 0.0 0.00 0.08 0.08 98 1017.0
20260903081739 16 124 0.0 3.2 0.00 0.08 0.08 98 1017.1
20260903081236 16 177 3.2 4.8 0.00 0.08 0.08 98 1017.2
20260903080732 16 90 1.6 3.2 0.00 0.08 0.08 98 1016.9
20260903080229 16 94 0.0 0.0 0.00 0.08 0.08 98 1016.6
20260903075728 16 95 3.2 3.2 0.00 0.08 0.08 98 1016.6
20260903075223 15 95 0.0 0.0 0.00 0.08 0.08 98 1016.7
20260903074722 15 95 0.0 3.2 0.00 0.08 0.08 98 1016.6
20260903074212 15 95 3.2 3.2 0.00 0.08 0.08 98 1016.7
20260903073707 15 95 3.2 3.2 0.00 0.08 0.08 98 1016.6
20260903073202 15 95 3.2 4.8 0.00 0.08 0.08 98 1016.9
20260903072658 15 94 1.6 3.2 0.00 0.08 0.08 98 1017.0
20260903072155 15 94 1.6 3.2 0.00 0.08 0.08 98 1017.1
20260903071650 15 96 0.0 3.2 0.00 0.08 0.08 98 1017.2
20260903071146 16 97 3.2 3.2 0.00 0.08 0.08 98 1017.3
20260903070646 16 96 1.6 4.8 0.00 0.08 0.08 98 1017.2
20260903070142 16 128 3.2 3.2 0.00 0.08 0.08 98 1017.3
20260903065641 16 128 3.2 3.2 0.18 0.08 0.08 98 1017.5
20260903065135 16 129 0.0 3.2 0.18 0.08 0.08 98 1017.7
20260903064629 16 129 3.2 3.2 0.00 0.05 0.05 98 1017.6
20260903064125 16 130 0.0 0.0 0.00 0.05 0.05 98 1018.0
20260903063621 16 130 0.0 3.2 0.13 0.05 0.05 98 1017.9
20260903063115 16 131 0.0 0.0 0.13 0.05 0.05 98 1018.1
20260903062611 16 132 0.0 0.0 0.00 0.03 0.03 98 1018.2
20260903062106 16 155 0.0 3.2 0.00 0.03 0.03 98 1018.1
20260903061607 16 155 0.0 0.0 0.18 0.03 0.03 98 1017.9
20260903061101 16 155 0.0 0.0 0.18 0.03 0.03 98 1018.1
20260903060601 16 155 0.0 3.2 0.00 0.00 0.00 98 1018.2
20260903060056 16 155 0.0 0.0 0.00 0.00 0.00 98 1018.5
20260903055554 16 155 0.0 0.0 0.00 0.00 0.00 98 1018.6
20260903055052 16 155 1.6 3.2 0.00 0.00 0.00 98 1018.5
20260903054547 16 155 0.0 0.0 0.00 0.00 0.00 98 1018.4
20260903054043 16 155 0.0 0.0 0.00 0.00 0.00 97 1018.2
20260903053538 16 155 0.0 0.0 0.00 0.00 0.00 97 1018.7
20260903053035 16 155 0.0 3.2 0.00 0.00 0.00 97 1018.7
20260903052530 16 155 0.0 3.2 0.00 0.00 0.00 97 1018.7
20260903052026 16 155 0.0 3.2 0.00 0.00 0.00 97 1018.8
20260903051525 16 155 0.0 0.0 0.00 0.00 0.00 97 1018.7
20260903051021 16 155 0.0 0.0 0.00 0.00 0.00 97 1019.0
20260903050520 16 156 1.6 3.2 0.00 0.00 0.00 97 1018.9
20260903050016 16 153 0.0 3.2 0.00 0.00 0.00 97 1019.0
20260903045510 16 153 0.0 0.0 0.00 0.00 0.00 96 1018.9
20260903045007 16 153 1.6 3.2 0.00 0.00 0.00 96 1019.0
20260903044503 16 153 0.0 3.2 0.00 0.00 0.00 96 1018.7
20260903043958 15 153 0.0 3.2 0.00 0.00 0.00 96 1018.8
20260903043453 15 153 0.0 3.2 0.00 0.00 0.00 96 1018.9
20260903042952 15 154 0.0 3.2 0.00 0.00 0.00 95 1019.1
20260903042447 15 153 0.0 0.0 0.00 0.00 0.00 95 1019.1
20260903041943 15 153 0.0 3.2 0.00 0.00 0.00 95 1019.0
20260903041439 15 154 0.0 3.2 0.00 0.00 0.00 95 1019.3
20260903040935 15 159 0.0 3.2 0.00 0.00 0.00 95 1019.5
20260903040434 15 159 0.0 0.0 0.00 0.00 0.00 95 1019.6
20260903035930 15 159 3.2 3.2 0.00 0.00 0.00 95 1019.9
20260903035426 15 159 0.0 3.2 0.00 0.00 0.00 94 1019.9
20260903034926 15 156 0.0 3.2 0.00 0.00 0.00 94 1019.9
20260903034420 15 156 0.0 3.2 0.00 0.00 0.00 94 1019.8
20260903033916 15 155 0.0 3.2 0.00 0.00 0.00 93 1019.9
20260903033411 15 156 3.2 3.2 0.00 0.00 0.00 93 1019.8
20260903032906 15 157 0.0 3.2 0.00 0.00 0.00 93 1020.0
20260903032401 15 141 0.0 0.0 0.00 0.00 0.00 93 1019.8
20260903031856 15 141 0.0 0.0 0.00 0.00 0.00 92 1019.9
20260903031355 15 141 0.0 0.0 0.00 0.00 0.00 92 1019.9
20260903030851 15 142 0.0 0.0 0.00 0.00 0.00 93 1020.2
20260903030347 15 145 0.0 3.2 0.00 0.00 0.00 93 1020.2
20260903025843 15 117 0.0 3.2 0.00 0.00 0.00 93 1020.1
20260903025338 15 100 0.0 0.0 0.00 0.00 0.00 93 1020.3
20260903024837 15 100 0.0 0.0 0.00 0.00 0.00 93 1020.0
20260903024332 15 100 0.0 0.0 0.00 0.00 0.00 93 1020.0
20260903023828 15 99 0.0 0.0 0.00 0.00 0.00 93 1020.0
20260903023323 15 99 1.6 3.2 0.00 0.00 0.00 94 1019.9
20260903022818 15 99 0.0 0.0 0.00 0.00 0.00 93 1020.0
20260903022317 15 99 0.0 0.0 0.00 0.00 0.00 93 1020.1
20260903021817 15 99 1.6 3.2 0.00 0.00 0.00 93 1020.1
20260903021313 15 100 0.0 3.2 0.00 0.00 0.00 93 1020.4
20260903020812 15 100 0.0 3.2 0.00 0.00 0.00 93 1020.4
20260903020307 15 100 0.0 0.0 0.00 0.00 0.00 93 1020.5
20260903015803 15 100 0.0 0.0 0.00 0.00 0.00 93 1020.3
20260903015258 15 100 0.0 3.2 0.00 0.00 0.00 93 1020.3
20260903014753 15 100 0.0 3.2 0.00 0.00 0.00 93 1020.2
20260903014252 15 102 3.2 3.2 0.00 0.00 0.00 93 1020.3
20260903013748 15 102 0.0 3.2 0.00 0.00 0.00 93 1020.3
20260903013246 16 102 3.2 3.2 0.00 0.00 0.00 93 1019.9
20260903012745 16 102 3.2 4.8 0.00 0.00 0.00 92 1020.1
20260903012245 16 103 0.0 3.2 0.00 0.00 0.00 92 1020.0
20260903011739 16 103 0.0 3.2 0.00 0.00 0.00 92 1020.3
20260903011234 16 103 0.0 3.2 0.00 0.00 0.00 92 1020.4
20260903010730 16 103 0.0 3.2 0.00 0.00 0.00 92 1020.1
20260903010230 16 103 3.2 3.2 0.00 0.00 0.00 92 1020.2
20260903005728 16 103 1.6 3.2 0.00 0.00 0.00 92 1020.5
20260903005223 16 103 3.2 3.2 0.00 0.00 0.00 92 1020.4
20260903004719 16 103 3.2 3.2 0.00 0.00 0.00 92 1020.3
20260903004214 16 103 1.6 3.2 0.00 0.00 0.00 92 1020.0
20260903003710 16 103 3.2 3.2 0.00 0.00 0.00 91 1020.0
20260903003205 16 103 3.2 3.2 0.00 0.00 0.00 91 1020.0
20260903002700 16 103 3.2 3.2 0.00 0.00 0.00 90 1020.0
20260903002154 16 103 0.0 3.2 0.00 0.00 0.00 90 1020.0
20260903001649 16 103 3.2 3.2 0.00 0.00 0.00 90 1020.0
20260903001143 16 103 1.6 3.2 0.00 0.00 0.00 89 1020.1
20260903000639 16 103 1.6 3.2 0.00 0.00 0.00 89 1020.1
20260903000138 16 103 1.6 3.2 0.00 0.00 0.00 88 1020.3
20260902235637 16 103 0.0 3.2 0.00 0.00 0.00 88 1020.1
20260902235132 16 103 0.0 3.2 0.00 0.00 0.00 87 1020.1
20260902234626 17 103 3.2 3.2 0.00 0.00 0.00 86 1020.2
20260902234124 17 103 0.0 0.0 0.00 0.00 0.00 85 1020.3
20260902233619 17 103 1.6 3.2 0.00 0.00 0.00 85 1020.2
20260902233113 17 103 0.0 3.2 0.00 0.00 0.00 84 1020.3
20260902232608 17 103 0.0 3.2 0.00 0.00 0.00 84 1020.4
20260902232107 17 103 1.6 3.2 0.00 0.00 0.00 84 1020.7
20260902231602 17 103 0.0 3.2 0.00 0.00 0.00 83 1021.0
20260902231101 17 103 0.0 3.2 0.00 0.00 0.00 83 1020.8
20260902230556 17 103 0.0 3.2 0.00 0.00 0.00 83 1021.0
20260902230055 17 103 1.6 3.2 0.00 0.00 0.00 83 1021.0
20260902225551 17 103 0.0 3.2 0.00 0.00 0.00 82 1021.0
20260902225045 17 103 1.6 3.2 0.00 0.00 0.00 82 1021.0